Weather History for Dayton, OH

Change the Weather History Date:

Wednesday, November 6, 2013

  Actual Average Record
Temperature  
Mean Temperature 53 °F 47 °F  
Max Temperature 61 °F 56 °F 78 °F (1975)
Min Temperature 45 °F 38 °F 19 °F (1908)
Degree Days  
Heating Degree Days 12 18  
Month to date heating degree days 86 103  
Since 1 July heating degree days 473 550  
Cooling Degree Days 0 0  
Month to date cooling degree days 0 0  
Year to date cooling degree days 1062 891  
Growing Degree Days 2 (Base 50)    
Moisture  
Dew Point 48 °F    
Average Humidity 76    
Maximum Humidity 100    
Minimum Humidity 51    
Precipitation  
Precipitation 0.30 in 0.10 in 0.93 in (1951)
Month to date precipitation 0.30 0.64  
Year to date precipitation 30.65 35.18  
Snow  
Snow 0.00 in 0.00 in 1.00 in (1971)
Month to date snowfall 0.0 0.1  
Since 1 July snowfall 1.0 0.5  
Since 1 September snowfall 1.0 0.5  
Snow Depth 0.00 in    
Sea Level Pressure  
Sea Level Pressure 30.05 in    
Wind  
Wind Speed 14 mph (SW)    
Max Wind Speed 29 mph    
Max Gust Speed 35 mph    
Visibility 8 miles    
Events Rain    
T = Trace of Precipitation, MM = Missing Value Source: NWS Daily Summary

Daily Weather History Graph

Daily Weather History Graph

Search for Another Location

Airport:

Trip Planner

Search our weather history database for the weather conditions in past years. The results will help you decide how hot, cold, wet, or windy it might be!

Date:

Astronomy

Nov. 06, 2013 Rise Set
Actual Time 7:11 AM EST 5:28 PM EST
Civil Twilight 6:43 AM EST 5:57 PM EST
Nautical Twilight 6:11 AM EST 6:29 PM EST
Astronomical Twilight 5:39 AM EST 7:00 PM EST
Moon 10:25 AM EST (11/6) 8:32 PM EST (11/6)
Length of Visible Light 11h 13m
Length of Day
10h 17m
Waxing Crescent, 13% of the Moon is Illuminated
Nov 6
Waxing Crescent
Nov 10
First Quarter
Nov 17
Full
Nov 25
Last Quarter
Dec 2
New

Hourly Weather History & Observations

Time (EST) Temp. Windchill Dew Point Humidity Pressure Visibility Wind Dir Wind Speed Gust Speed Precip Events Conditions
12:56 AM 50.0 °F - 37.9 °F 63% 30.21 in 10.0 mi SSE 6.9 mph - N/A   Mostly Cloudy
1:56 AM 53.1 °F - 37.0 °F 55% 30.18 in 10.0 mi South 9.2 mph - N/A   Mostly Cloudy
2:56 AM 54.0 °F - 37.0 °F 53% 30.18 in 10.0 mi SSW 11.5 mph - N/A   Mostly Cloudy
3:56 AM 55.0 °F - 37.9 °F 53% 30.16 in 10.0 mi South 15.0 mph - N/A   Mostly Cloudy
4:56 AM 55.0 °F - 39.0 °F 55% 30.14 in 10.0 mi South 12.7 mph - N/A   Overcast
5:56 AM 55.0 °F - 39.9 °F 57% 30.13 in 10.0 mi South 11.5 mph - N/A   Mostly Cloudy
6:56 AM 55.0 °F - 39.9 °F 57% 30.12 in 10.0 mi South 10.4 mph - N/A   Mostly Cloudy
7:56 AM 55.0 °F - 39.0 °F 55% 30.10 in 10.0 mi South 11.5 mph - N/A   Mostly Cloudy
8:56 AM 57.0 °F - 41.0 °F 55% 30.10 in 10.0 mi South 16.1 mph 21.9 mph N/A   Overcast
9:56 AM 59.0 °F - 42.1 °F 53% 30.09 in 10.0 mi SSW 16.1 mph - N/A   Overcast
10:56 AM 60.1 °F - 46.9 °F 62% 30.07 in 10.0 mi South 17.3 mph 28.8 mph N/A   Mostly Cloudy
11:56 AM 61.0 °F - 48.9 °F 64% 30.05 in 10.0 mi South 16.1 mph 27.6 mph N/A   Overcast
12:56 PM 60.1 °F - 53.1 °F 78% 30.03 in 9.0 mi SSW 11.5 mph - 0.01 in Rain Light Rain
1:56 PM 61.0 °F - 55.0 °F 81% 29.99 in 10.0 mi South 15.0 mph 23.0 mph 0.01 in Rain Light Rain
2:56 PM 61.0 °F - 55.0 °F 81% 29.97 in 10.0 mi South 23.0 mph 32.2 mph 0.00 in   Overcast
3:56 PM 59.0 °F - 57.0 °F 93% 29.98 in 5.0 mi SSW 16.1 mph 23.0 mph 0.03 in Rain Light Rain
4:14 PM 59.0 °F - 57.2 °F 94% 29.98 in 7.0 mi SSW 17.3 mph 26.5 mph 0.00 in Rain Light Rain
4:41 PM 59.0 °F - 57.2 °F 94% 29.98 in 5.0 mi SW 19.6 mph 24.2 mph 0.02 in Rain Light Rain
4:49 PM 59.0 °F - 57.2 °F 94% 29.98 in 4.0 mi SW 16.1 mph - 0.03 in Rain Rain
4:56 PM 59.0 °F - 57.0 °F 93% 29.98 in 7.0 mi SW 15.0 mph - 0.04 in Rain Light Rain
5:38 PM 59.0 °F - 57.2 °F 94% 29.98 in 4.0 mi SW 10.4 mph - 0.01 in Rain Light Rain
5:56 PM 59.0 °F - 57.9 °F 96% 29.98 in 3.0 mi SW 11.5 mph - 0.02 in Rain Light Rain
6:22 PM 59.0 °F - 57.2 °F 94% 29.99 in 4.0 mi WSW 9.2 mph - 0.01 in   Overcast
6:40 PM 59.0 °F - 57.2 °F 94% 29.98 in 5.0 mi WSW 15.0 mph - 0.03 in Rain Light Rain
6:56 PM 57.9 °F - 57.0 °F 97% 29.99 in 10.0 mi WSW 12.7 mph 23.0 mph 0.03 in   Overcast
7:14 PM 57.2 °F - 55.4 °F 94% 29.99 in 10.0 mi WSW 12.7 mph - N/A   Overcast
7:56 PM 57.0 °F - 55.0 °F 93% 29.98 in 7.0 mi WSW 15.0 mph - 0.01 in Rain Light Rain
8:22 PM 57.2 °F - 55.4 °F 94% 29.99 in 9.0 mi West 12.7 mph - 0.00 in Rain Light Rain
8:40 PM 57.2 °F - 55.4 °F 94% 29.99 in 8.0 mi West 11.5 mph - 0.01 in Rain Light Rain
8:56 PM 57.0 °F - 55.0 °F 93% 29.99 in 7.0 mi West 13.8 mph - 0.01 in Rain Light Rain
9:22 PM 51.8 °F - 48.2 °F 88% 30.00 in 6.0 mi NW 26.5 mph 34.5 mph 0.03 in Rain Rain
9:56 PM 46.9 °F - 46.0 °F 97% 30.04 in 10.0 mi WNW 18.4 mph 23.0 mph 0.05 in Rain Light Rain
10:15 PM 46.4 °F 40.1 °F 44.6 °F 93% 30.03 in 8.0 mi WNW 15.0 mph - 0.03 in Rain Rain
10:56 PM 46.0 °F 40.6 °F 44.1 °F 93% 30.04 in 8.0 mi NW 11.5 mph - 0.06 in Rain Light Rain
11:03 PM 46.4 °F 40.7 °F 44.6 °F 93% 30.04 in 10.0 mi NW 12.7 mph - 0.01 in Rain Light Rain
11:11 PM 46.4 °F 40.4 °F 42.8 °F 87% 30.04 in 8.0 mi NW 13.8 mph 20.7 mph 0.02 in Rain Rain
11:23 PM 44.6 °F 37.4 °F 42.8 °F 93% 30.06 in 10.0 mi NW 16.1 mph - 0.02 in Rain Light Rain
11:40 PM 44.6 °F 37.8 °F 42.8 °F 93% 30.05 in 10.0 mi NW 15.0 mph 21.9 mph 0.02 in Rain Light Rain
11:56 PM 45.0 °F 38.5 °F 43.0 °F 93% 30.07 in 9.0 mi NW 13.8 mph - 0.03 in Rain Light Rain